Radiation Dose at Monitoring Post of Fukushima Daini Nuclear Power Station
Date,Time,MP-1(microSv/h),MP-2(microSv/h),MP-3(microSv/h),MP-4(microSv/h),MP-5(microSv/h),MP-6(microSv/h),MP-7(microSv/h),Wind Direction,Wind Velocity(m/s),Rain
2017/09/18,00:00,0.323,0.202,0.327,0.309,0.305,0.160,0.100,south-southeast,18.5,Yes
2017/09/18,00:10,0.328,0.204,0.326,0.308,0.307,0.161,0.099,south-southeast,20.2,Yes
2017/09/18,00:20,0.326,0.202,0.327,0.306,0.304,0.159,0.099,south-southeast,19.1,Yes
2017/09/18,00:30,0.324,0.201,0.324,0.309,0.305,0.160,0.099,south-southeast,18.7,Yes
2017/09/18,00:40,0.327,0.202,0.327,0.310,0.306,0.159,0.099,south-southeast,18.4,Yes
2017/09/18,00:50,0.326,0.202,0.329,0.307,0.303,0.158,0.099,south-southeast,17.4,Yes
2017/09/18,01:00,0.324,0.202,0.325,0.312,0.307,0.160,0.098,south,16.4,No
2017/09/18,01:10,0.330,0.203,0.329,0.311,0.307,0.160,0.098,south,12.7,Yes
2017/09/18,01:20,0.325,0.200,0.327,0.306,0.303,0.158,0.098,south,12.6,Yes
2017/09/18,01:30,0.320,0.200,0.323,0.308,0.305,0.158,0.097,south-southeast,16.6,Yes
2017/09/18,01:40,0.328,0.202,0.327,0.309,0.306,0.159,0.097,south-southeast,17.2,Yes
2017/09/18,01:50,0.325,0.202,0.326,0.306,0.304,0.160,0.098,south,13.4,No
2017/09/18,02:00,0.324,0.202,0.326,0.310,0.306,0.160,0.099,south,11.8,Yes
2017/09/18,02:10,0.329,0.204,0.331,0.311,0.306,0.160,0.097,south,14.4,Yes
2017/09/18,02:20,0.330,0.202,0.330,0.309,0.303,0.160,0.099,south,14.6,Yes
2017/09/18,02:30,0.325,0.203,0.328,0.312,0.307,0.161,0.098,south,15.0,No
2017/09/18,02:40,0.329,0.205,0.332,0.313,0.306,0.161,0.098,south,12.9,Yes
2017/09/18,02:50,0.331,0.202,0.330,0.310,0.305,0.161,0.098,south,14.6,Yes
2017/09/18,03:00,0.327,0.204,0.328,0.313,0.307,0.163,0.098,south,14.6,Yes
2017/09/18,03:10,0.330,0.204,0.332,0.314,0.308,0.163,0.099,south,14.9,Yes
2017/09/18,03:20,0.331,0.203,0.332,0.311,0.304,0.162,0.099,south,16.4,Yes
2017/09/18,03:30,0.329,0.203,0.329,0.314,0.308,0.162,0.098,south,17.3,Yes
2017/09/18,03:40,0.329,0.205,0.333,0.314,0.309,0.163,0.099,south,18.5,Yes
2017/09/18,03:50,0.333,0.205,0.332,0.310,0.307,0.162,0.100,south,22.4,Yes
2017/09/18,04:00,0.329,0.204,0.328,0.311,0.306,0.162,0.099,south,17.9,Yes
2017/09/18,04:10,0.328,0.207,0.332,0.313,0.308,0.164,0.101,south,21.0,Yes
2017/09/18,04:20,0.332,0.205,0.331,0.312,0.307,0.164,0.100,south,18.8,Yes
2017/09/18,04:30,0.328,0.204,0.329,0.312,0.307,0.163,0.100,south,17.4,Yes
2017/09/18,04:40,0.328,0.206,0.333,0.312,0.308,0.165,0.100,south,17.4,Yes
2017/09/18,04:50,0.333,0.205,0.330,0.310,0.306,0.163,0.101,south,19.2,Yes
2017/09/18,05:00,0.330,0.205,0.329,0.310,0.307,0.163,0.099,south,19.2,Yes
2017/09/18,05:10,0.326,0.205,0.333,0.313,0.307,0.164,0.099,south,19.3,No
2017/09/18,05:20,0.332,0.205,0.331,0.311,0.306,0.164,0.100,south,17.7,Yes
2017/09/18,05:30,0.331,0.204,0.329,0.311,0.307,0.163,0.099,south,20.1,No
2017/09/18,05:40,0.329,0.206,0.333,0.314,0.308,0.164,0.098,south,19.7,No
2017/09/18,05:50,0.331,0.206,0.333,0.313,0.307,0.164,0.100,south,17.0,Yes
2017/09/18,06:00,0.332,0.204,0.331,0.311,0.309,0.163,0.100,south,19.4,Yes
2017/09/18,06:10,0.330,0.206,0.333,0.314,0.310,0.164,0.099,south,15.4,Yes
2017/09/18,06:20,0.332,0.206,0.334,0.314,0.307,0.164,0.100,south,11.8,Yes
2017/09/18,06:30,0.333,0.203,0.330,0.311,0.308,0.164,0.099,south-southwest,10.5,Yes
2017/09/18,06:40,0.332,0.206,0.332,0.315,0.310,0.164,0.099,south-southwest,12.4,Yes
2017/09/18,06:50,0.329,0.206,0.337,0.315,0.308,0.165,0.100,south-southwest,13.7,Yes
2017/09/18,07:00,0.333,0.207,0.333,0.314,0.308,0.168,0.102,south-southwest,9.1,Yes
2017/09/18,07:10,0.333,0.208,0.332,0.317,0.312,0.167,0.102,south-southwest,10.4,Yes
2017/09/18,07:20,0.331,0.210,0.336,0.318,0.311,0.167,0.102,south,9.2,Yes
2017/09/18,07:30,0.332,0.208,0.334,0.315,0.309,0.168,0.102,south-southwest,10.5,No
2017/09/18,07:40,0.334,0.207,0.333,0.316,0.312,0.167,0.102,south-southwest,10.6,No
2017/09/18,07:50,0.332,0.208,0.337,0.317,0.312,0.165,0.101,south-southwest,8.9,No
2017/09/18,08:00,0.329,0.207,0.334,0.316,0.309,0.165,0.100,south,8.8,No
2017/09/18,08:10,0.334,0.205,0.332,0.314,0.307,0.166,0.101,south-southwest,5.3,No
2017/09/18,08:20,0.334,0.206,0.336,0.313,0.312,0.166,0.101,south,3.8,No
2017/09/18,08:30,0.330,0.205,0.334,0.311,0.311,0.164,0.099,south,3.7,No
2017/09/18,08:40,0.329,0.204,0.332,0.313,0.308,0.164,0.099,south,4.6,No
2017/09/18,08:50,0.328,0.205,0.332,0.313,0.307,0.166,0.100,south,5.4,No
2017/09/18,09:00,0.330,0.204,0.337,0.313,0.306,0.165,0.100,southwest,3.1,No
2017/09/18,09:10,0.334,0.205,0.334,0.313,0.305,0.165,0.100,west-southwest,3.9,No
2017/09/18,09:20,0.333,0.205,0.332,0.315,0.306,0.164,0.100,southwest,2.8,No
2017/09/18,09:30,0.330,0.207,0.333,0.315,0.307,0.164,0.100,south-southwest,4.8,No
2017/09/18,09:40,0.332,0.206,0.337,0.315,0.308,0.165,0.100,southwest,3.9,No
2017/09/18,09:50,0.332,0.205,0.334,0.317,0.309,0.165,0.099,southwest,3.2,No
2017/09/18,10:00,0.331,0.208,0.332,0.315,0.309,0.165,0.100,west-southwest,2.2,No
2017/09/18,10:10,0.332,0.207,0.332,0.315,0.308,0.165,0.100,west-southwest,4.9,No
2017/09/18,10:20,0.333,0.206,0.337,0.316,0.309,0.166,0.101,south-southwest,4.3,No
2017/09/18,10:30,0.332,0.206,0.337,0.318,0.310,0.165,0.099,southwest,9.2,No
2017/09/18,10:40,0.333,0.206,0.336,0.319,0.310,0.165,0.101,west-southwest,6.0,No
2017/09/18,10:50,0.333,0.207,0.335,0.319,0.311,0.167,0.101,west-southwest,8.3,No
2017/09/18,11:00,0.332,0.207,0.335,0.318,0.310,0.167,0.100,west-southwest,7.2,No
2017/09/18,11:10,0.334,0.209,0.333,0.319,0.308,0.167,0.101,west-southwest,5.2,No
2017/09/18,11:20,0.333,0.208,0.336,0.318,0.310,0.167,0.101,west,8.4,No
2017/09/18,11:30,0.333,0.208,0.335,0.318,0.310,0.166,0.101,west,5.5,No
2017/09/18,11:40,0.335,0.207,0.337,0.318,0.309,0.166,0.101,west,6.1,No
2017/09/18,11:50,0.334,0.208,0.336,0.318,0.311,0.166,0.102,west-northwest,8.1,No
2017/09/18,12:00,0.334,0.207,0.335,0.317,0.309,0.166,0.101,west-northwest,6.2,No
2017/09/18,12:10,0.335,0.208,0.337,0.317,0.310,0.167,0.101,west,6.6,No
2017/09/18,12:20,0.336,0.207,0.336,0.317,0.311,0.166,0.099,west,9.7,No
2017/09/18,12:30,0.335,0.208,0.336,0.319,0.310,0.166,0.100,west-northwest,5.1,No
2017/09/18,12:40,0.337,0.208,0.336,0.318,0.312,0.167,0.101,west,5.8,No
2017/09/18,12:50,0.337,0.207,0.339,0.319,0.311,0.167,0.100,west,6.8,No
2017/09/18,13:00,0.336,0.208,0.338,0.319,0.310,0.168,0.100,west,7.9,No
2017/09/18,13:10,0.336,0.208,0.338,0.321,0.311,0.168,0.101,west-southwest,2.8,No
2017/09/18,13:20,0.335,0.208,0.338,0.320,0.310,0.168,0.100,northwest,4.5,No
2017/09/18,13:30,0.334,0.208,0.339,0.318,0.310,0.168,0.100,west,6.8,No
2017/09/18,13:40,0.335,0.208,0.338,0.318,0.311,0.168,0.100,west,7.5,No
2017/09/18,13:50,0.336,0.208,0.337,0.320,0.310,0.168,0.100,west-northwest,7.1,No
2017/09/18,14:00,0.334,0.208,0.339,0.318,0.311,0.168,0.100,west,7.5,No
2017/09/18,14:10,0.335,0.208,0.338,0.316,0.311,0.168,0.100,west,6.2,No
2017/09/18,14:20,0.335,0.210,0.339,0.318,0.311,0.168,0.101,west-northwest,6.8,No
2017/09/18,14:30,0.335,0.210,0.339,0.318,0.311,0.169,0.100,west-northwest,5.9,No
2017/09/18,14:40,0.334,0.208,0.338,0.318,0.311,0.168,0.101,west,5.5,No
2017/09/18,14:50,0.335,0.208,0.337,0.318,0.311,0.168,0.100,west-northwest,4.7,No
2017/09/18,15:00,0.335,0.210,0.338,0.316,0.311,0.169,0.100,west-northwest,4.2,No
2017/09/18,15:10,0.339,0.209,0.336,0.317,0.312,0.168,0.100,northwest,3.6,No
2017/09/18,15:20,0.340,0.208,0.335,0.318,0.310,0.167,0.100,west-northwest,6.8,No
2017/09/18,15:30,0.338,0.207,0.337,0.322,0.312,0.169,0.100,northwest,5.6,No
2017/09/18,15:40,0.338,0.207,0.342,0.322,0.311,0.169,0.101,northwest,7.1,No
2017/09/18,15:50,0.337,0.211,0.343,0.320,0.310,0.168,0.101,west-northwest,8.7,No
2017/09/18,16:00,0.338,0.210,0.339,0.318,0.311,0.169,0.101,west-northwest,7.9,No
2017/09/18,16:10,0.341,0.207,0.336,0.323,0.310,0.168,0.100,west-northwest,7.5,No
2017/09/18,16:20,0.339,0.207,0.342,0.324,0.311,0.167,0.101,northwest,8.4,No
2017/09/18,16:30,0.337,0.209,0.342,0.319,0.311,0.168,0.101,northwest,6.2,No
2017/09/18,16:40,0.335,0.212,0.339,0.317,0.312,0.167,0.101,north-northwest,5.6,No
2017/09/18,16:50,0.338,0.209,0.336,0.322,0.311,0.167,0.100,north-northwest,2.5,No
2017/09/18,17:00,0.341,0.208,0.342,0.321,0.310,0.169,0.101,northwest,2.5,No
2017/09/18,17:10,0.339,0.209,0.343,0.319,0.309,0.169,0.102,north-northwest,6.2,No
2017/09/18,17:20,0.337,0.209,0.339,0.320,0.312,0.168,0.101,north-northwest,5.0,No
2017/09/18,17:30,0.338,0.210,0.340,0.323,0.316,0.168,0.101,north,5.4,No
2017/09/18,17:40,0.340,0.209,0.342,0.321,0.313,0.169,0.100,north,5.1,No
2017/09/18,17:50,0.338,0.211,0.340,0.318,0.311,0.170,0.101,north,6.1,No
2017/09/18,18:00,0.336,0.209,0.338,0.323,0.313,0.169,0.101,north,4.8,No
2017/09/18,18:10,0.341,0.209,0.342,0.321,0.314,0.169,0.101,north,5.6,No
2017/09/18,18:20,0.339,0.211,0.341,0.320,0.310,0.169,0.101,north-northeast,4.2,No
2017/09/18,18:30,0.335,0.210,0.339,0.324,0.314,0.168,0.101,north,5.6,No
2017/09/18,18:40,0.341,0.209,0.342,0.322,0.314,0.170,0.100,north-northwest,4.2,No
2017/09/18,18:50,0.341,0.211,0.341,0.319,0.311,0.169,0.101,north,2.0,No
2017/09/18,19:00,0.338,0.209,0.339,0.323,0.316,0.170,0.100,north-northeast,3.4,No
2017/09/18,19:10,0.340,0.210,0.344,0.321,0.312,0.170,0.101,north,4.6,No
2017/09/18,19:20,0.341,0.210,0.339,0.321,0.310,0.169,0.102,north,2.0,No
2017/09/18,19:30,0.337,0.209,0.340,0.323,0.314,0.170,0.100,north,3.4,No
2017/09/18,19:40,0.340,0.210,0.342,0.319,0.312,0.169,0.101,north,3.7,No
2017/09/18,19:50,0.341,0.209,0.338,0.320,0.312,0.170,0.102,north,3.3,No
2017/09/18,20:00,0.338,0.210,0.342,0.323,0.314,0.170,0.100,north,3.6,No
2017/09/18,20:10,0.341,0.210,0.341,0.319,0.311,0.169,0.101,north,3.4,No
2017/09/18,20:20,0.338,0.210,0.339,0.323,0.313,0.170,0.101,north,4.0,No
2017/09/18,20:30,0.340,0.210,0.343,0.321,0.314,0.168,0.101,north,2.8,No
2017/09/18,20:40,0.339,0.209,0.340,0.320,0.312,0.169,0.101,north,1.9,No
2017/09/18,20:50,0.338,0.210,0.341,0.322,0.315,0.170,0.101,north,2.8,No
2017/09/18,21:00,0.341,0.209,0.342,0.320,0.313,0.169,0.102,north-northwest,5.3,No
2017/09/18,21:10,0.339,0.211,0.340,0.321,0.311,0.170,0.100,north-northwest,3.1,No
2017/09/18,21:20,0.338,0.209,0.344,0.321,0.315,0.169,0.101,north,6.1,No
2017/09/18,21:30,0.340,0.210,0.341,0.319,0.313,0.170,0.101,north,5.4,No
2017/09/18,21:40,0.337,0.209,0.341,0.323,0.312,0.169,0.100,north-northwest,4.1,No
2017/09/18,21:50,0.340,0.211,0.343,0.321,0.315,0.169,0.102,north-northwest,3.6,No
2017/09/18,22:00,0.339,0.209,0.340,0.321,0.310,0.169,0.101,north-northwest,4.7,No
2017/09/18,22:10,0.339,0.210,0.344,0.322,0.314,0.169,0.102,north,5.4,No
2017/09/18,22:20,0.341,0.210,0.341,0.320,0.314,0.169,0.101,north,4.2,No
2017/09/18,22:30,0.338,0.209,0.342,0.323,0.311,0.170,0.101,north-northwest,3.2,No
2017/09/18,22:40,0.341,0.211,0.341,0.320,0.313,0.170,0.100,north-northeast,3.3,No
2017/09/18,22:50,0.340,0.210,0.340,0.324,0.312,0.170,0.102,north,0.8,No
2017/09/18,23:00,0.338,0.211,0.345,0.321,0.314,0.170,0.101,northeast,1.5,No
2017/09/18,23:10,0.341,0.210,0.341,0.323,0.312,0.169,0.101,northeast,2.7,No
2017/09/18,23:20,0.339,0.211,0.344,0.322,0.313,0.170,0.101,north-northeast,0.9,No
2017/09/18,23:30,0.342,0.209,0.343,0.321,0.314,0.170,0.101,northwest,2.0,No
2017/09/18,23:40,0.339,0.211,0.342,0.322,0.313,0.170,0.102,-,CALM,No
2017/09/18,23:50,0.340,0.208,0.344,0.320,0.315,0.169,0.101,south-southeast,0.5,No
